Weather History for Charlotte, NC

Change the Weather History Date:

Tuesday, November 5, 2013

  Actual Average Record
Temperature  
Mean Temperature 47 °F 54 °F  
Max Temperature 58 °F 66 °F 81 °F (2003)
Min Temperature 35 °F 42 °F 24 °F (2006)
Degree Days  
Heating Degree Days 18 11  
Month to date heating degree days 59 53  
Since 1 July heating degree days 192 259  
Cooling Degree Days 0 0  
Month to date cooling degree days 0 0  
Year to date cooling degree days 1576 1513  
Moisture  
Dew Point 38 °F    
Average Humidity 69    
Maximum Humidity 83    
Minimum Humidity 55    
Precipitation  
Precipitation 0.00 in 0.10 in 0.97 in (2002)
Month to date precipitation 0.51 0.50  
Year to date precipitation 39.37 35.74  
Snow  
Snow 0.00 in 0.00 in T in (1962)
Month to date snowfall 0.0 0.0  
Since 1 July snowfall 0.0 0.0  
Since 1 September snowfall 0.0 0.0  
Snow Depth 0.00 in    
Sea Level Pressure  
Sea Level Pressure 30.49 in    
Wind  
Wind Speed 8 mph (NNE)    
Max Wind Speed 14 mph    
Max Gust Speed 18 mph    
Visibility 10 miles    
Events      
T = Trace of Precipitation, MM = Missing Value Source: NWS Daily Summary

Daily Weather History Graph

Daily Weather History Graph

Search for Another Location

Airport:

Trip Planner

Search our weather history database for the weather conditions in past years. The results will help you decide how hot, cold, wet, or windy it might be!

Date:

Astronomy

Nov. 05, 2013 Rise Set
Actual Time 6:49 AM EST 5:25 PM EST
Civil Twilight 6:22 AM EST 5:51 PM EST
Nautical Twilight 5:52 AM EST 6:21 PM EST
Astronomical Twilight 5:22 AM EST 6:51 PM EST
Moon 8:59 AM EST (11/5) 7:28 PM EST (11/5)
Length of Visible Light 11h 28m
Length of Day
10h 36m
Waxing Crescent, 6% of the Moon is Illuminated
Nov 5
Waxing Crescent
Nov 10
First Quarter
Nov 17
Full
Nov 25
Last Quarter
Dec 2
New

Hourly Weather History & Observations

Time (EST) Temp. Windchill Dew Point Humidity Pressure Visibility Wind Dir Wind Speed Gust Speed Precip Events Conditions
12:52 AM 42.1 °F 37.7 °F 30.9 °F 65% 30.51 in 10.0 mi ENE 6.9 mph - N/A   Mostly Cloudy
1:52 AM 41.0 °F 37.1 °F 30.9 °F 67% 30.51 in 10.0 mi NE 5.8 mph - N/A   Overcast
2:52 AM 39.0 °F 34.8 °F 30.0 °F 70% 30.51 in 10.0 mi NE 5.8 mph - N/A   Mostly Cloudy
3:52 AM 35.1 °F 30.1 °F 30.9 °F 85% 30.52 in 10.0 mi North 5.8 mph - N/A   Scattered Clouds
4:52 AM 35.1 °F 27.9 °F 30.0 °F 82% 30.53 in 10.0 mi North 9.2 mph - N/A   Overcast
5:52 AM 37.9 °F 33.5 °F 30.9 °F 76% 30.53 in 10.0 mi NNE 5.8 mph - N/A   Overcast
6:52 AM 37.9 °F 31.5 °F 32.0 °F 79% 30.53 in 10.0 mi North 9.2 mph - N/A   Overcast
7:52 AM 39.9 °F 32.9 °F 32.0 °F 73% 30.55 in 10.0 mi North 11.5 mph - N/A   Overcast
8:52 AM 43.0 °F 38.8 °F 33.1 °F 68% 30.57 in 10.0 mi North 6.9 mph - N/A   Overcast
9:52 AM 46.0 °F 40.6 °F 34.0 °F 63% 30.56 in 10.0 mi North 11.5 mph - N/A   Overcast
10:52 AM 48.9 °F - 36.0 °F 61% 30.55 in 10.0 mi North 10.4 mph - N/A   Overcast
11:52 AM 52.0 °F - 37.9 °F 59% 30.51 in 10.0 mi NNE 10.4 mph 16.1 mph N/A   Overcast
12:52 PM 54.0 °F - 39.9 °F 59% 30.48 in 10.0 mi North 9.2 mph - N/A   Overcast
1:29 PM 55.4 °F - 39.2 °F 54% 30.47 in 10.0 mi NNE 10.4 mph - N/A   Overcast
1:52 PM 54.0 °F - 39.9 °F 59% 30.47 in 10.0 mi North 9.2 mph - N/A   Overcast
2:47 PM 55.4 °F - 41.0 °F 58% 30.45 in 10.0 mi North 6.9 mph - N/A   Overcast
2:52 PM 57.0 °F - 41.0 °F 55% 30.46 in 10.0 mi North 5.8 mph - N/A   Overcast
3:52 PM 55.9 °F - 42.1 °F 60% 30.45 in 10.0 mi NNE 6.9 mph - N/A   Mostly Cloudy
4:52 PM 55.0 °F - 41.0 °F 59% 30.45 in 10.0 mi Variable 6.9 mph - N/A   Mostly Cloudy
5:52 PM 54.0 °F - 42.1 °F 64% 30.45 in 10.0 mi North 5.8 mph - N/A   Mostly Cloudy
6:52 PM 55.0 °F - 44.1 °F 67% 30.45 in 10.0 mi NE 6.9 mph - N/A   Overcast
7:52 PM 55.0 °F - 45.0 °F 69% 30.45 in 10.0 mi NE 5.8 mph - N/A   Overcast
8:52 PM 54.0 °F - 46.0 °F 75% 30.45 in 10.0 mi NE 8.1 mph - N/A   Overcast
9:23 PM 53.6 °F - 46.4 °F 77% 30.45 in 10.0 mi NNE 6.9 mph - N/A   Overcast
9:52 PM 53.1 °F - 46.0 °F 77% 30.45 in 10.0 mi North 9.2 mph - N/A   Overcast
10:52 PM 52.0 °F - 46.9 °F 83% 30.45 in 10.0 mi NNE 6.9 mph - N/A   Overcast
11:52 PM 51.1 °F - 48.0 °F 89% 30.43 in 10.0 mi North 5.8 mph - N/A   Overcast